Flag for India Weather past 2 weeks in Karaikudi, Tamil Nadu, India

Now
86 °F

Scattered clouds.


Feels Like: 91 °F
Forecast: 81 / 96 °F
Wind: 15 mph from Northwest

Location: Tiruchchirapalli

Current Time: Jul 25, 2014 at 10:15:49 AM

Latest Report: Jul 25, 2014 at 8:40 AM


Visibility: 4 mi

Pressure: 29.83 "Hg

Humidity: 59%

Dew point: 70 °F

Location of KaraikudiLocation

Historic Weather in Karaikudi — Graph

°F

Karaikudi temperature yesterday

Maximum temperature yesterday: 100 °F (at 3:40 PM)
Minimum temperature yesterday: 82 °F (at 12:40 AM)
Average temperature yesterday: 89 °F

Past Weeks' High & Low Weather Summary

 TemperatureHumidityPressure
High100 °F (Jul 15, 3:40 PM)74% (Jul 11, 2:40 AM)29.83 "Hg (Jul 11, 2:40 AM)
Low81 °F (Jul 11, 2:40 AM)33% (Jul 17, 1:40 PM)29.62 "Hg (Jul 13, 4:40 PM)
Average88 °F54%29.72 "Hg
* Reported Jul 10 8:40 AM — Jul 25 8:40 AM, Karaikudi, Weather by CustomWeather, © 2014

Note: Actual official high and low records may vary slightly from our data, if they occured in-between our weather recording intervals... More about our weather records

Advertising

Karaikudi weather history for previous 24 hours

 ConditionsComfort  
Time TempWeatherWind HumidityBarometerVisibility
8:40 AM
Jul 25
86 °FScattered clouds.15 mph59%29.83 "Hg4 mi
7:40 AM84 °FScattered clouds.15 mph66%29.80 "Hg4 mi
6:40 AM82 °FScattered clouds.14 mph66%29.80 "Hg4 mi
5:40 AM82 °FPassing clouds.13 mph66%29.77 "Hg4 mi
4:40 AM82 °FPassing clouds.12 mph66%29.77 "Hg4 mi
3:40 AM82 °FPassing clouds.12 mph66%29.77 "Hg4 mi
2:40 AM82 °FPassing clouds.12 mph66%29.77 "Hg4 mi
1:40 AM84 °FPassing clouds.15 mph58%29.77 "Hg4 mi
12:40 AM84 °FPassing clouds.14 mph58%29.80 "Hg4 mi
11:40 PM
Jul 24
84 °FPassing clouds.15 mph58%29.80 "Hg4 mi
10:40 PM86 °FPassing clouds.15 mph55%29.80 "Hg4 mi
9:40 PM86 °FPassing clouds.14 mph55%29.80 "Hg4 mi
8:40 PM88 °FPassing clouds.16 mph52%29.77 "Hg4 mi
7:40 PM88 °FPassing clouds.17 mph52%29.74 "Hg4 mi
6:40 PM93 °FScattered clouds.16 mph44%29.71 "Hg4 mi
5:40 PM97 °FPassing clouds.18 mph39%29.68 "Hg5 mi
4:40 PM97 °FPassing clouds.22 mph39%29.68 "Hg5 mi
3:40 PM100 °FPassing clouds.21 mph33%29.68 "Hg5 mi
2:40 PM99 °FScattered clouds.21 mph37%29.68 "Hg5 mi
1:40 PM99 °FScattered clouds.23 mph39%29.68 "Hg5 mi
12:40 PM99 °FScattered clouds.21 mph39%29.71 "Hg5 mi
11:40 AM97 °FScattered clouds.22 mph42%29.74 "Hg5 mi
10:40 AM93 °FPassing clouds.23 mph47%29.77 "Hg4 mi
Weather by CustomWeather, © 2014

See weather overviewHow to use our weather pages